Tracking 19831 objects as of 23-Aug-2019
HD Live streaming from Space Station
objects crossing your sky now

YAOGAN 28 DEB

Track YAOGAN 28 DEB now!
10-day predictions


NORAD ID: 41040
Int'l Code: 2015-064C
Perigee: 444.7 km
Apogee: 464.7 km
Inclination: 97.4 °
Period: 93.5 minutes
Semi major axis: 6825 km
RCS: Unknown
Launch date: November 8, 2015
Source: People's Republic of China (PRC)
Launch site: Taiyaun Space Center, China (TSC)

Note: This is SATELLITE DEBRIS
aabbcc
Your satellite tracking list
Your tracking list is empty




NASA's NSSDC Master Catalog

Two Line Element Set (TLE):
1 41040U 15064C   19234.63168197 +.00000742 +00000-0 +21045-4 0  9994
2 41040 097.4283 020.6144 0014690 339.4222 020.6430 15.39504997211276
Source of the keplerian elements: AFSPC